[[{"header":{"parameterUnit":"m.s-1","parameterCategory":1,"la1":30.2991,"la2":30.254,"lo1":-89.0895,"lo2":-89.0444,"dy":0.0017,"dx":0.0017,"nx":28,"ny":28,"refTime":"2024-04-12T21:00:00:Z","depth":0,"parameterNumber":2,"parameterNumberName":"U-component_of_WINDS"},"data":[0,0,0,0,0,0,0,0,0,0,0,0,0,0,0,0,0,0,0,0,0,0,0,0,0,0,0,0,0,0,0,0,0,0,0,0,0,0,0,0,0,0,0,0,0,0,0,0,0,0,0,0,0,0,0,0,0,0,2.7125,2.7126,0,2.7243,2.7244,2.7246,2.7276,2.7275,2.7274,2.7274,2.7399,2.7403,2.7407,0,0,0,0,0,0,0,0,0,0,0,0,0,2.6932,2.6935,2.7125,2.7126,2.7128,2.7243,2.7244,2.7246,2.7276,2.7275,2.7274,2.7273,2.7398,2.7403,2.7407,0,0,0,0,0,0,0,0,0,0,0,0,0,2.703,2.6936,2.7124,2.7156,2.716,2.7242,2.7244,2.7246,2.7276,2.7275,2.7274,2.7273,2.7396,2.7402,2.7408,2.7468,0,0,2.7427,2.7429,0,0,0,0,0,0,0,0,2.7024,2.7037,2.715,2.7154,2.7159,2.7243,2.7222,2.7321,2.7277,2.7232,2.7274,2.7272,2.7349,2.7358,2.7383,2.7474,2.7479,2.7427,2.7431,2.7433,2.7435,0,0,0,0,0,0,0,2.7017,2.7032,2.7172,2.7152,2.7157,2.7167,2.718,2.7241,2.7296,2.7236,2.7239,2.7252,2.7351,2.7377,2.7386,2.7481,2.7427,2.7432,2.7436,2.7439,2.7632,2.7634,0,0,0,0,0,0,2.7004,2.7026,2.7168,2.7175,2.7087,2.7172,2.7186,2.7218,2.7295,2.7305,2.7253,2.7253,2.7368,2.7379,2.7391,2.7469,2.7433,2.7439,2.7443,2.7631,2.7632,2.7634,0,0,0,0,0,0,2.7,2.7016,2.7163,2.7101,2.7121,2.7176,2.7212,2.722,2.7247,2.7307,2.7318,2.7269,2.7367,2.7382,2.7449,2.7474,2.7442,2.7447,2.7629,2.7631,2.7633,2.7624,0,0,0,0,0,0,2.6994,2.7015,2.7036,2.7101,2.7124,2.7217,2.7213,2.7224,2.7257,2.7258,2.7326,2.7336,2.7367,2.744,2.7455,2.7482,2.7452,2.7627,2.763,2.7633,2.7623,2.7626,2.7629,0,0,0,0,0,2.6987,2.7029,2.7037,2.7054,2.7151,2.7218,2.7232,2.7265,2.7258,2.7282,2.7322,2.7334,2.7469,2.7447,2.7464,2.7493,2.7626,2.7629,2.7632,2.7621,2.7625,2.7629,0,0,0,0,0,0,2.6965,2.7038,2.7048,2.7111,2.7158,2.7223,2.7254,2.7268,2.7319,2.7318,2.736,2.7375,2.744,2.7473,2.7447,2.7557,2.7548,2.7555,2.7533,2.7538,2.754,2.7532,2.7457,0,0,0,0,0,2.6968,2.7014,2.7076,2.7126,2.7149,2.7197,2.7228,2.725,2.7301,2.7322,2.7366,2.7417,2.7472,2.7506,2.7559,2.7628,2.7645,2.7656,2.7659,2.7661,2.7668,2.7711,2.7717,2.7645,2.7645,2.7645,0,0,2.6973,2.7019,2.7046,2.7123,2.7162,2.7212,2.7214,2.7266,2.7304,2.733,2.7397,2.7431,2.7491,2.756,2.7593,2.759,2.7692,2.7666,2.7667,2.7672,2.7715,2.7722,2.7728,2.7648,2.7647,2.7647,0,0,2.701,2.7047,2.7095,2.7135,2.7194,2.7227,2.7238,2.7302,2.7326,2.7393,2.7415,2.7462,2.7554,2.7597,2.763,2.7687,2.7702,2.7704,2.772,2.7762,2.7767,2.7773,2.7796,2.7804,2.7709,2.7709,2.7709,0,2.701,2.7084,2.7118,2.717,2.7205,2.7231,2.7282,2.7319,2.7393,2.7418,2.7413,2.7531,2.7573,2.7654,2.7669,2.7694,2.7712,2.7696,2.7763,2.7769,2.7775,2.7798,2.7806,2.7709,2.7709,2.7709,2.7709,0,2.7083,2.7134,2.7166,2.7237,2.7276,2.7327,2.7372,2.7407,2.7427,2.7461,2.7532,2.7583,2.7649,2.767,2.7689,2.7755,2.7752,2.7754,2.7746,2.7781,2.7803,2.7812,2.7709,2.7709,2.7709,2.7709,0,0,2.7107,2.7198,2.721,2.7244,2.7313,2.7355,2.7409,2.7472,2.7504,2.7555,2.7604,2.7682,2.7686,2.7725,2.775,2.7786,2.7833,2.7785,2.7788,2.7795,2.7913,2.7912,2.7921,2.7843,2.7844,2.7846,2.7909,0,2.7154,2.7249,2.7284,2.7363,2.7414,2.7441,2.7489,2.7538,2.7572,2.7622,2.766,2.7716,2.7715,2.774,2.7776,2.7819,2.7857,2.7815,2.7891,2.7894,2.7877,2.7932,2.7931,2.7988,2.7918,2.7919,2.792,0,2.7221,2.7273,2.7357,2.7424,2.7447,2.7488,2.7552,2.7598,2.7656,2.7679,2.7723,2.7747,2.7808,2.7795,2.7882,2.7853,2.7886,2.7913,2.7916,2.7926,2.791,2.7946,2.8006,2.8016,2.7934,2.7933,2.7932,0,2.7233,2.7325,2.7389,2.7417,2.7495,2.7525,2.7559,2.7616,2.7653,2.7709,2.7735,2.7797,2.7832,2.7882,2.7923,2.7909,2.8008,2.7997,2.8031,2.803,2.8051,2.805,2.812,2.807,2.807,2.8069,2.8069,0,2.7283,2.7335,2.7396,2.7435,2.7495,2.7535,2.7594,2.7631,2.7682,2.7731,2.7759,2.7805,2.7856,2.791,2.7943,2.8012,2.8027,2.8049,2.8058,2.8048,2.8045,2.8072,2.807,2.8072,2.8071,2.8071,2.807,0,2.7307,2.735,2.7422,2.749,2.7509,2.7551,2.7611,2.7652,2.7688,2.7751,2.7768,2.7825,2.789,2.7936,2.802,2.8043,2.8118,2.8125,2.8098,2.8103,2.8135,2.8133,2.8226,2.8242,2.8179,2.8179,2.818,0,2.7337,2.7377,2.7451,2.7486,2.752,2.7575,2.7613,2.7656,2.7696,2.7767,2.7801,2.7868,2.7923,2.8027,2.8078,2.8143,2.8154,2.8182,2.8164,2.8154,2.8158,2.8156,2.8162,2.8185,2.8186,2.8186,2.8187,0,2.7386,2.7406,2.7459,2.7522,2.7567,2.7619,2.7671,2.7698,2.7751,2.7795,2.7861,2.7904,2.7991,2.8059,2.813,2.8168,2.8188,2.8192,2.8204,2.8195,2.8179,2.8191,2.8108,2.819,2.8189,2.8189,2.8189,2.8189,2.7416,2.7454,2.7513,2.7574,2.7617,2.7666,2.7709,2.7751,2.7807,2.788,2.7902,2.7973,2.8034,2.8132,2.8172,2.8229,2.8228,2.8244,2.8249,2.8253,2.8254,2.8168,2.8242,2.8242,2.8242,2.8242,2.8242,0,2.7469,2.7508,2.7563,2.7636,2.7684,2.7697,2.7756,2.7797,2.7857,2.7912,2.7967,2.8046,2.8113,2.817,2.824,2.8276,2.8287,2.8293,2.8292,2.8301,2.825,2.8234,2.8283,2.8283,2.8283,2.8283,2.8283,2.8283,2.7502,2.7569,2.7597,2.7688,2.7728,2.7796,2.7829,2.7876,2.792,2.8007,2.8062,2.8098,2.8156,2.8231,2.8294,2.8309,2.8335,2.834,2.8357,2.8309,2.8304,2.83,2.8285,2.8344,2.8344,2.8404,2.8405,2.8405]},{"header":{"parameterUnit":"m.s-1","parameterCategory":1,"la1":30.2991,"la2":30.254,"lo1":-89.0895,"lo2":-89.0444,"dy":0.0017,"dx":0.0017,"nx":28,"ny":28,"refTime":"2024-04-12T21:00:00:Z","depth":0,"parameterNumber":3,"parameterNumberName":"V-component_of_WINDS"},"data":[0,0,0,0,0,0,0,0,0,0,0,0,0,0,0,0,0,0,0,0,0,0,0,0,0,0,0,0,0,0,0,0,0,0,0,0,0,0,0,0,0,0,0,0,0,0,0,0,0,0,0,0,0,0,0,0,0,0,-2.48,-2.4799,0,-2.4698,-2.4697,-2.4696,-2.4741,-2.4744,-2.4746,-2.4749,-2.4637,-2.4632,-2.4627,0,0,0,0,0,0,0,0,0,0,0,0,0,-2.503,-2.5025,-2.48,-2.4799,-2.4798,-2.4698,-2.4697,-2.4695,-2.4741,-2.4744,-2.4747,-2.475,-2.4639,-2.4633,-2.4626,0,0,0,0,0,0,0,0,0,0,0,0,0,-2.4929,-2.5024,-2.4801,-2.4809,-2.4808,-2.4699,-2.4697,-2.4695,-2.474,-2.4744,-2.4748,-2.4751,-2.4641,-2.4633,-2.4625,-2.45,0,0,-2.4601,-2.4597,0,0,0,0,0,0,0,0,-2.4934,-2.492,-2.4809,-2.4808,-2.4807,-2.4737,-2.4737,-2.4629,-2.4739,-2.4766,-2.4749,-2.4753,-2.4667,-2.4657,-2.4629,-2.4494,-2.449,-2.46,-2.4595,-2.4592,-2.459,0,0,0,0,0,0,0,-2.4941,-2.4925,-2.476,-2.4807,-2.4806,-2.4816,-2.4805,-2.4717,-2.4696,-2.4764,-2.4767,-2.4754,-2.4667,-2.4637,-2.4627,-2.4488,-2.46,-2.4593,-2.4588,-2.4585,-2.4245,-2.4241,0,0,0,0,0,0,-2.4949,-2.493,-2.4763,-2.4757,-2.4882,-2.4808,-2.4797,-2.4755,-2.4697,-2.4692,-2.4751,-2.4757,-2.4648,-2.4636,-2.4623,-2.4471,-2.4592,-2.4584,-2.458,-2.4249,-2.4244,-2.4239,0,0,0,0,0,0,-2.4954,-2.4934,-2.4767,-2.4844,-2.4824,-2.48,-2.4753,-2.4751,-2.4721,-2.4688,-2.4684,-2.4724,-2.4651,-2.4634,-2.453,-2.4468,-2.4581,-2.4574,-2.4254,-2.4247,-2.4241,-2.4167,0,0,0,0,0,0,-2.496,-2.4935,-2.4888,-2.4843,-2.482,-2.4677,-2.4749,-2.4746,-2.4708,-2.4714,-2.4661,-2.4656,-2.4653,-2.4542,-2.4522,-2.4459,-2.4567,-2.4259,-2.4251,-2.4244,-2.4175,-2.4159,-2.4145,0,0,0,0,0,-2.4968,-2.487,-2.4886,-2.4865,-2.4761,-2.4674,-2.466,-2.466,-2.4703,-2.4654,-2.4633,-2.4658,-2.4479,-2.4531,-2.4509,-2.4442,-2.4263,-2.4253,-2.4244,-2.4181,-2.4162,-2.4146,0,0,0,0,0,0,-2.4905,-2.4864,-2.4881,-2.4766,-2.4723,-2.4682,-2.4621,-2.4639,-2.4582,-2.459,-2.4591,-2.4578,-2.4471,-2.4447,-2.4506,-2.4318,-2.4377,-2.4363,-2.4337,-2.4318,-2.4304,-2.431,-2.4561,0,0,0,0,0,-2.4879,-2.4814,-2.478,-2.4681,-2.466,-2.4644,-2.4606,-2.461,-2.4565,-2.4546,-2.4518,-2.4471,-2.4405,-2.4361,-2.4297,-2.4173,-2.4161,-2.4116,-2.4101,-2.4089,-2.4076,-2.4007,-2.3987,-2.4208,-2.4208,-2.4208,0,0,-2.4821,-2.4791,-2.4749,-2.4668,-2.4636,-2.4566,-2.4628,-2.4552,-2.45,-2.4534,-2.4435,-2.4412,-2.436,-2.4245,-2.4193,-2.4222,-2.4013,-2.4077,-2.4068,-2.4061,-2.3995,-2.3974,-2.3956,-2.4201,-2.4203,-2.4204,0,0,-2.4682,-2.4653,-2.4567,-2.4534,-2.4486,-2.4476,-2.4456,-2.4412,-2.4399,-2.43,-2.4324,-2.4261,-2.4147,-2.4109,-2.4075,-2.3923,-2.3943,-2.3902,-2.3823,-2.3757,-2.3739,-2.3724,-2.3668,-2.3648,-2.389,-2.3889,-2.3889,0,-2.4616,-2.4514,-2.452,-2.4442,-2.4405,-2.4437,-2.4349,-2.4316,-2.4248,-2.4221,-2.4255,-2.4112,-2.408,-2.3956,-2.3919,-2.3891,-2.3866,-2.3907,-2.3742,-2.3726,-2.3712,-2.3658,-2.3637,-2.3885,-2.3885,-2.3886,-2.3886,0,-2.4435,-2.4365,-2.4301,-2.4237,-2.4193,-2.4111,-2.4103,-2.4057,-2.4066,-2.4052,-2.395,-2.3913,-2.3843,-2.3814,-2.382,-2.3691,-2.371,-2.3743,-2.3802,-2.3686,-2.3636,-2.3615,-2.3878,-2.388,-2.3881,-2.3882,0,0,-2.425,-2.4193,-2.4169,-2.4141,-2.409,-2.4034,-2.3953,-2.3887,-2.3847,-2.38,-2.373,-2.3634,-2.3664,-2.3626,-2.3628,-2.357,-2.345,-2.361,-2.3608,-2.358,-2.3304,-2.3278,-2.3254,-2.3465,-2.3461,-2.3458,-2.3307,0,-2.4105,-2.3965,-2.3969,-2.3837,-2.3771,-2.3801,-2.373,-2.369,-2.3676,-2.3617,-2.36,-2.3531,-2.3577,-2.3554,-2.3498,-2.3477,-2.3394,-2.3488,-2.3397,-2.3394,-2.3407,-2.3228,-2.32,-2.306,-2.3288,-2.3285,-2.3282,0,-2.3917,-2.3866,-2.3728,-2.3688,-2.3661,-2.3597,-2.3537,-2.348,-2.3436,-2.343,-2.3387,-2.34,-2.3315,-2.338,-2.3263,-2.3326,-2.329,-2.3274,-2.3269,-2.3258,-2.3329,-2.321,-2.3015,-2.2993,-2.3252,-2.3254,-2.3256,0,-2.3793,-2.369,-2.3595,-2.357,-2.3521,-2.3475,-2.3452,-2.3412,-2.3372,-2.3319,-2.3293,-2.3231,-2.3195,-2.3146,-2.314,-2.3188,-2.3022,-2.3086,-2.3012,-2.3012,-2.2973,-2.2975,-2.2767,-2.2954,-2.2954,-2.2955,-2.2955,0,-2.3629,-2.3543,-2.3539,-2.3479,-2.3384,-2.3389,-2.3294,-2.3275,-2.324,-2.3176,-2.3198,-2.3137,-2.3135,-2.3073,-2.3068,-2.2971,-2.2955,-2.2946,-2.2946,-2.2943,-2.2944,-2.2917,-2.2925,-2.2949,-2.295,-2.2951,-2.2952,0,-2.3474,-2.3467,-2.3365,-2.3329,-2.3317,-2.3248,-2.3216,-2.3159,-2.3149,-2.3068,-2.3049,-2.3031,-2.2958,-2.2949,-2.2864,-2.2861,-2.2744,-2.2755,-2.2759,-2.276,-2.2686,-2.2692,-2.2451,-2.2419,-2.2629,-2.2627,-2.2626,0,-2.3368,-2.3304,-2.3261,-2.3221,-2.3197,-2.3132,-2.3093,-2.3095,-2.3053,-2.2998,-2.2947,-2.2878,-2.2822,-2.2705,-2.2683,-2.2618,-2.2626,-2.2546,-2.2616,-2.2615,-2.2622,-2.2625,-2.2618,-2.2532,-2.2529,-2.2527,-2.2526,0,-2.3182,-2.3182,-2.3125,-2.3067,-2.302,-2.2973,-2.293,-2.2895,-2.2893,-2.2843,-2.2771,-2.2729,-2.2643,-2.2573,-2.251,-2.2485,-2.2503,-2.2505,-2.2484,-2.2479,-2.2484,-2.2478,-2.272,-2.2509,-2.2511,-2.2512,-2.2513,-2.2514,-2.3046,-2.299,-2.2952,-2.2887,-2.2856,-2.2815,-2.276,-2.2743,-2.2684,-2.2616,-2.2621,-2.2541,-2.2499,-2.2416,-2.2386,-2.2322,-2.2348,-2.2318,-2.231,-2.2302,-2.2294,-2.2497,-2.2311,-2.2311,-2.2312,-2.2312,-2.2313,0,-2.2859,-2.2837,-2.2778,-2.2718,-2.2667,-2.2693,-2.2647,-2.2601,-2.2532,-2.2492,-2.2438,-2.2354,-2.2287,-2.2261,-2.2195,-2.2149,-2.2156,-2.2131,-2.2133,-2.2126,-2.2276,-2.2299,-2.2126,-2.2126,-2.2127,-2.2127,-2.2127,-2.2127,-2.2755,-2.2661,-2.2658,-2.2548,-2.2526,-2.2449,-2.242,-2.2382,-2.235,-2.2257,-2.2202,-2.2187,-2.2152,-2.2084,-2.2023,-2.2017,-2.199,-2.1961,-2.1958,-2.2097,-2.2116,-2.2134,-2.2156,-2.1956,-2.1956,-2.1815,-2.1813,-2.1812]}]]